WZ8H Weather Reports


time (UTC)temp
C
wind
direction
speed
KPH
gust
KPH
rain 1hr
cm
rain 24hr
cm
rain mn
cm
humidity
%
barometer
mb
20260508185405 16 231 4.8 11.3 0.00 0.08 0.08 69 1009.6
20260508184902 16 220 4.8 12.9 0.00 0.08 0.08 69 1009.8
20260508184356 16 266 3.2 12.9 0.00 0.08 0.08 69 1009.8
20260508184125 16 278 3.2 11.3 0.00 0.08 0.08 69 1009.6
20260508183356 16 238 4.8 14.5 0.00 0.08 0.08 70 1009.6
20260508182833 16 248 6.4 14.5 0.00 0.08 0.08 71 1010.0
20260508182307 16 217 4.8 11.3 0.00 0.08 0.08 70 1010.1
20260508181810 16 215 4.8 11.3 0.00 0.08 0.08 70 1010.2
20260508181257 16 259 4.8 11.3 0.00 0.08 0.08 72 1010.0
20260508180728 16 275 3.2 11.3 0.00 0.08 0.08 69 1010.1
20260508180201 16 275 4.8 9.7 0.00 0.08 0.08 71 1010.0
20260508175700 16 226 4.8 12.9 0.00 0.08 0.08 70 1010.2
20260508175133 16 263 4.8 12.9 0.00 0.08 0.08 70 1010.3
20260508174635 16 266 4.8 14.5 0.00 0.08 0.08 71 1010.4
20260508174120 16 278 4.8 11.3 0.00 0.08 0.08 72 1010.4
20260508173618 16 203 4.8 11.3 0.00 0.08 0.08 72 1010.3
20260508173115 15 202 4.8 14.5 0.00 0.08 0.08 71 1010.3
20260508172614 15 248 4.8 14.5 0.00 0.08 0.08 71 1010.5
20260508172339 15 213 4.8 16.1 0.00 0.08 0.08 73 1010.6
20260508171605 15 315 4.8 16.1 0.00 0.08 0.08 72 1010.7
20260508171038 15 279 6.4 19.3 0.00 0.08 0.08 73 1010.8
20260508170536 15 288 6.4 19.3 0.00 0.08 0.08 73 1010.9
20260508170021 15 270 6.4 16.1 0.00 0.08 0.08 72 1011.0
20260508165524 15 227 4.8 14.5 0.00 0.08 0.08 73 1010.9
20260508164957 15 228 4.8 16.1 0.00 0.08 0.08 75 1011.1
20260508164432 15 254 4.8 16.1 0.00 0.08 0.08 73 1011.2
20260508163928 15 278 3.2 11.3 0.00 0.08 0.08 75 1011.4
20260508163402 14 210 3.2 11.3 0.00 0.08 0.08 73 1011.4
20260508162858 14 221 3.2 11.3 0.00 0.08 0.08 74 1011.4
20260508162330 13 238 3.2 11.3 0.00 0.08 0.08 74 1011.4
20260508161832 13 248 3.2 6.4 0.00 0.08 0.08 74 1011.4
20260508161307 13 267 3.2 6.4 0.00 0.08 0.08 75 1011.5
20260508160955 13 225 3.2 9.7 0.00 0.08 0.08 76 1011.4
20260508160233 13 182 3.2 9.7 0.00 0.08 0.08 77 1011.5
20260508155708 13 185 1.6 8.0 0.00 0.08 0.08 79 1011.5
20260508155139 12 163 1.6 6.4 0.00 0.08 0.08 80 1011.5
20260508154640 12 138 3.2 11.3 0.00 0.08 0.08 81 1011.5
20260508154111 11 59 3.2 11.3 0.00 0.08 0.08 80 1011.6
20260508153542 12 15 3.2 12.9 0.00 0.08 0.08 79 1011.5
20260508153041 12 22 4.8 12.9 0.00 0.08 0.08 78 1011.5
20260508152515 12 66 4.8 11.3 0.00 0.08 0.08 77 1011.5
20260508152008 13 28 1.6 9.7 0.00 0.08 0.08 78 1011.5
20260508151505 13 279 3.2 8.0 0.00 0.08 0.08 77 1011.5
20260508150935 13 235 3.2 8.0 0.00 0.08 0.08 76 1011.5
20260508150417 13 210 3.2 8.0 0.00 0.08 0.08 77 1011.5
20260508145842 13 198 3.2 8.0 0.00 0.08 0.08 78 1011.4
20260508145340 13 197 4.8 9.7 0.00 0.08 0.08 77 1011.3
20260508144836 13 198 3.2 9.7 0.00 0.08 0.08 78 1011.4
20260508144335 13 217 3.2 8.0 0.00 0.08 0.08 78 1011.4
20260508143806 13 221 4.8 8.0 0.00 0.08 0.08 80 1011.5
20260508143529 13 217 4.8 12.9 0.00 0.08 0.08 79 1011.3
20260508142741 12 223 3.2 12.9 0.00 0.08 0.08 77 1011.4
20260508142238 12 223 3.2 9.7 0.00 0.08 0.08 78 1011.5
20260508141731 12 243 3.2 9.7 0.00 0.08 0.08 80 1011.4
20260508141224 12 259 3.2 9.7 0.00 0.08 0.08 79 1011.5
20260508140659 12 265 4.8 12.9 0.00 0.08 0.08 79 1011.4
20260508140154 11 313 4.8 12.9 0.00 0.08 0.08 79 1011.4
20260508135628 11 275 4.8 11.3 0.00 0.08 0.08 80 1011.6
20260508135104 11 242 4.8 11.3 0.00 0.08 0.08 80 1011.5
20260508134804 11 257 4.8 14.5 0.00 0.08 0.08 80 1011.6
20260508134030 11 323 3.2 14.5 0.00 0.08 0.08 80 1011.6
20260508133506 11 254 3.2 14.5 0.00 0.08 0.08 81 1011.6
20260508132938 11 265 4.8 14.5 0.00 0.08 0.08 80 1011.6
20260508132658 11 262 4.8 14.5 0.00 0.08 0.08 81 1011.6
20260508131908 11 257 4.8 12.9 0.00 0.08 0.08 81 1011.7
20260508131346 11 240 4.8 14.5 0.00 0.08 0.08 82 1011.7
20260508130828 10 264 4.8 14.5 0.00 0.08 0.08 82 1011.6
20260508130332 10 262 4.8 12.9 0.00 0.08 0.08 83 1011.7
20260508125828 10 252 4.8 12.9 0.00 0.08 0.08 84 1011.7
20260508125308 10 275 4.8 11.3 0.03 0.08 0.08 86 1011.7
20260508124758 10 277 3.2 11.3 0.08 0.08 0.08 87 1011.7
20260508124255 10 215 3.2 11.3 0.08 0.08 0.08 87 1011.8
20260508123751 10 250 3.2 9.7 0.08 0.08 0.08 87 1011.8
20260508123225 10 249 3.2 8.0 0.08 0.08 0.08 88 1011.7
20260508122726 9 279 3.2 8.0 0.08 0.08 0.08 88 1011.6
20260508122202 9 197 3.2 6.4 0.08 0.08 0.08 88 1011.6
20260508121702 9 237 1.6 6.4 0.08 0.08 0.08 86 1011.7
20260508121137 9 256 1.6 4.8 0.08 0.08 0.08 86 1011.5
20260508120633 9 257 1.6 6.4 0.08 0.08 0.08 85 1011.4
20260508120115 9 257 3.2 6.4 0.08 0.08 0.08 84 1011.5
20260508115615 9 249 4.8 6.4 0.08 0.08 0.08 82 1011.4
20260508115116 10 192 4.8 20.9 0.03 0.03 0.03 81 1011.3
20260508114614 10 238 3.2 20.9 0.00 0.00 0.00 81 1011.7
20260508114056 10 246 3.2 8.0 0.00 0.00 0.00 80 1011.5
20260508113548 10 246 3.2 8.0 0.00 0.00 0.00 79 1011.4
20260508113313 10 219 3.2 9.7 0.00 0.00 0.00 79 1010.9
20260508112524 10 271 4.8 9.7 0.00 0.00 0.00 78 1010.8
20260508112023 10 249 4.8 14.5 0.00 0.00 0.00 78 1010.9
20260508111503 10 178 3.2 12.9 0.00 0.00 0.00 78 1010.7
20260508111002 10 225 3.2 11.3 0.00 0.00 0.00 78 1010.8
20260508110441 10 229 4.8 12.9 0.00 0.00 0.00 78 1010.7
20260508105930 10 267 4.8 12.9 0.00 0.00 0.00 78 1010.8
20260508105651 10 259 4.8 12.9 0.00 0.00 0.00 78 1010.6
20260508104910 10 239 4.8 12.9 0.00 0.00 0.00 78 1010.7
20260508104352 10 242 4.8 12.9 0.00 0.00 0.00 79 1010.6
20260508103853 10 254 4.8 12.9 0.00 0.00 0.00 78 1010.5
20260508103351 10 239 4.8 16.1 0.00 0.00 0.00 79 1010.6
20260508102854 10 267 4.8 16.1 0.00 0.00 0.00 80 1010.7
20260508102328 10 188 4.8 12.9 0.00 0.00 0.00 81 1010.6
20260508101816 10 251 6.4 14.5 0.00 0.00 0.00 81 1010.6
20260508101319 10 207 6.4 14.5 0.00 0.00 0.00 81 1010.6
20260508100821 10 250 6.4 14.5 0.00 0.00 0.00 82 1010.6
20260508100258 9 240 4.8 12.9 0.00 0.00 0.00 82 1010.6
20260508095732 9 180 4.8 11.3 0.00 0.00 0.00 83 1010.5
20260508095223 9 252 4.8 12.9 0.00 0.00 0.00 83 1010.7
20260508094721 9 224 4.8 12.9 0.00 0.00 0.00 83 1010.6
20260508094156 9 252 6.4 12.9 0.00 0.00 0.00 82 1010.6
20260508093633 9 262 6.4 19.3 0.00 0.00 0.00 83 1010.7
20260508093328 9 237 6.4 19.3 0.00 0.00 0.00 83 1010.6
20260508092603 9 212 4.8 14.5 0.00 0.00 0.00 84 1010.7
20260508092059 8 202 4.8 14.5 0.00 0.00 0.00 84 1010.7
20260508091557 8 243 4.8 9.7 0.00 0.00 0.00 85 1010.8
20260508091050 8 217 4.8 12.9 0.00 0.00 0.00 85 1010.7
20260508090553 8 251 4.8 11.3 0.00 0.00 0.00 85 1010.7
20260508090023 8 192 4.8 11.3 0.00 0.00 0.00 85 1010.6
20260508085459 8 234 3.2 12.9 0.00 0.00 0.00 85 1010.7
20260508084932 8 232 4.8 12.9 0.00 0.00 0.00 84 1010.7
20260508084402 8 227 4.8 11.3 0.00 0.00 0.00 84 1010.8
20260508083851 8 265 4.8 11.3 0.00 0.00 0.00 84 1010.8
20260508083351 8 237 4.8 12.9 0.00 0.00 0.00 84 1010.8
20260508082832 8 259 4.8 12.9 0.00 0.00 0.00 84 1010.7
20260508082257 8 217 4.8 12.9 0.00 0.00 0.00 84 1010.8
20260508081733 8 243 6.4 12.9 0.00 0.00 0.00 84 1010.9
20260508081430 8 215 4.8 12.9 0.00 0.00 0.00 83 1010.8
20260508080703 8 248 4.8 12.9 0.00 0.00 0.00 83 1011.0
20260508080201 8 267 6.4 12.9 0.00 0.00 0.00 83 1011.0
20260508075635 8 226 6.4 17.7 0.00 0.00 0.00 83 1011.0
20260508075130 8 246 6.4 17.7 0.00 0.00 0.00 83 1011.0
20260508074603 9 251 6.4 19.3 0.00 0.00 0.00 83 1011.0
20260508074100 9 271 4.8 19.3 0.00 0.00 0.00 83 1011.0
20260508073558 9 243 4.8 12.9 0.00 0.00 0.00 82 1011.0
20260508073057 9 227 6.4 12.9 0.00 0.00 0.00 82 1011.0
20260508072543 9 240 6.4 17.7 0.00 0.00 0.00 82 1011.0
20260508072046 9 248 6.4 17.7 0.00 0.00 0.00 81 1011.1
20260508071520 9 219 6.4 20.9 0.00 0.00 0.00 81 1011.1
20260508070951 9 236 8.0 20.9 0.00 0.00 0.00 81 1011.1
20260508070450 9 278 6.4 17.7 0.00 0.00 0.00 81 1011.3
20260508065923 9 265 6.4 17.7 0.00 0.00 0.00 81 1011.2
20260508065420 9 236 6.4 16.1 0.00 0.00 0.00 81 1011.1
20260508064915 9 245 6.4 19.3 0.00 0.00 0.00 81 1011.1
20260508064349 9 211 8.0 19.3 0.00 0.00 0.00 80 1011.2
20260508063831 9 243 8.0 19.3 0.00 0.00 0.00 80 1011.3
20260508063256 9 234 8.0 16.1 0.00 0.00 0.00 79 1011.3
20260508062753 9 245 6.4 16.1 0.00 0.00 0.00 79 1011.4
20260508062227 10 243 6.4 17.7 0.00 0.00 0.00 78 1011.3
20260508061729 10 258 8.0 17.7 0.00 0.00 0.00 78 1011.4
20260508061231 10 247 6.4 17.7 0.00 0.00 0.00 77 1011.3
20260508060727 10 265 6.4 17.7 0.00 0.00 0.00 77 1011.4
20260508060159 10 242 8.0 17.7 0.00 0.00 0.00 76 1011.4
20260508055657 10 236 6.4 19.3 0.00 0.00 0.00 76 1011.3
20260508055132 10 261 6.4 19.3 0.00 0.00 0.00 76 1011.4
20260508054608 10 257 6.4 16.1 0.00 0.00 0.00 76 1011.4
20260508054324 10 247 6.4 17.7 0.00 0.00 0.00 76 1011.4
20260508053817 10 255 6.4 17.7 0.00 0.00 0.00 75 1011.5
20260508053058 10 202 6.4 16.1 0.00 0.00 0.00 75 1011.5
20260508053024 10 238 6.4 16.1 0.00 0.00 0.00 74 1011.7
20260508052253 10 214 4.8 12.9 0.00 0.00 0.00 74 1011.6
20260508051504 10 218 3.2 8.0 0.00 0.00 0.00 74 1011.6
20260508050927 10 224 3.2 8.0 0.00 0.00 0.00 74 1011.6
20260508050424 10 244 3.2 11.3 0.00 0.00 0.00 74 1011.6
20260508045923 10 237 3.2 11.3 0.00 0.00 0.00 74 1011.7
20260508045407 10 241 3.2 9.7 0.00 0.00 0.00 74 1011.7
20260508044906 10 239 3.2 6.4 0.00 0.00 0.00 74 1011.6
20260508044342 10 242 3.2 6.4 0.00 0.00 0.00 74 1011.6
20260508043833 10 244 3.2 9.7 0.00 0.00 0.00 74 1011.6
20260508043307 10 269 3.2 8.0 0.00 0.00 0.00 73 1011.7
20260508042758 10 248 3.2 11.3 0.00 0.00 0.00 73 1011.7
20260508042255 10 187 4.8 11.3 0.00 0.00 0.00 73 1011.7
20260508041758 10 217 3.2 12.9 0.00 0.00 0.00 73 1011.7
20260508041229 10 227 3.2 12.9 0.00 0.00 0.00 73 1011.8
20260508040729 10 250 4.8 14.5 0.00 0.00 0.00 73 1011.8
20260508040201 10 265 4.8 14.5 0.00 0.00 0.00 73 1011.9
20260508035700 10 223 4.8 14.5 0.00 0.00 0.00 72 1011.9
20260508035158 10 250 4.8 11.3 0.00 0.00 0.00 72 1011.9
20260508034633 10 259 4.8 11.3 0.00 0.00 0.00 72 1011.9
20260508034103 10 209 3.2 12.9 0.00 0.00 0.00 72 1011.9
20260508033602 10 241 4.8 14.5 0.00 0.00 0.00 71 1011.9
20260508033058 10 235 4.8 14.5 0.00 0.00 0.00 71 1011.9
20260508032554 10 227 4.8 12.9 0.00 0.00 0.00 71 1011.9
20260508032030 10 244 6.4 12.9 0.00 0.00 0.00 71 1011.9
20260508031508 11 227 6.4 20.9 0.00 0.00 0.00 72 1011.9
20260508030929 11 239 6.4 20.9 0.00 0.00 0.00 71 1011.9
20260508030426 11 247 6.4 16.1 0.00 0.00 0.00 70 1012.0
20260508025908 11 249 6.4 25.7 0.00 0.00 0.00 70 1011.9
20260508025333 11 250 6.4 25.7 0.00 0.00 0.00 70 1012.1
20260508024833 11 246 6.4 16.1 0.00 0.00 0.00 70 1012.1
20260508024304 11 257 6.4 16.1 0.00 0.00 0.00 70 1012.1
20260508023737 11 240 6.4 19.3 0.00 0.00 0.00 70 1012.2
20260508023235 11 257 6.4 14.5 0.00 0.00 0.00 69 1012.1
20260508022708 11 229 6.4 19.3 0.00 0.00 0.00 69 1012.1
20260508022205 11 256 8.0 25.7 0.00 0.00 0.00 68 1012.1
20260508021637 11 257 8.0 25.7 0.00 0.00 0.00 66 1012.0
20260508021136 11 202 9.7 22.5 0.00 0.00 0.00 66 1011.9
20260508020632 11 219 11.3 22.5 0.00 0.00 0.00 64 1011.9
20260508020129 11 244 9.7 22.5 0.00 0.00 0.00 64 1011.9
20260508015601 11 267 9.7 22.5 0.00 0.00 0.00 63 1011.8
20260508015059 11 255 11.3 22.5 0.00 0.00 0.00 63 1011.9
20260508014531 12 246 11.3 24.1 0.00 0.00 0.00 62 1011.8
20260508014028 12 261 8.0 22.5 0.00 0.00 0.00 62 1011.6
20260508013519 12 267 4.8 19.3 0.00 0.00 0.00 63 1011.6
20260508013010 11 93 3.2 19.3 0.00 0.00 0.00 64 1011.7
20260508012446 11 270 1.6 4.8 0.00 0.00 0.00 65 1011.6
20260508011918 11 286 0.0 3.2 0.00 0.00 0.00 64 1011.4
20260508011414 11 294 0.0 0.0 0.00 0.00 0.00 64 1011.4
20260508010851 11 294 0.0 0.0 0.00 0.00 0.00 63 1011.3
20260508010320 11 294 0.0 0.0 0.00 0.00 0.00 62 1011.3
20260508005820 11 294 0.0 0.0 0.00 0.00 0.00 61 1011.3
20260508005311 11 294 0.0 0.0 0.00 0.00 0.00 61 1011.2
20260508004744 11 294 0.0 0.0 0.00 0.00 0.00 61 1011.3
20260508004241 11 294 0.0 0.0 0.00 0.00 0.00 61 1011.2
20260508003729 11 294 0.0 0.0 0.00 0.00 0.00 60 1011.2
20260508003231 11 294 0.0 0.0 0.00 0.00 0.00 60 1011.2
20260508002703 12 294 0.0 0.0 0.00 0.00 0.00 60 1011.2
20260508002201 12 294 0.0 0.0 0.00 0.00 0.00 59 1011.2
20260508001657 12 294 0.0 0.0 0.00 0.00 0.00 57 1011.0
20260508001156 12 294 0.0 0.0 0.00 0.00 0.00 56 1011.1
20260508000651 12 294 0.0 4.8 0.00 0.00 0.00 55 1011.0
20260508000145 12 294 1.6 4.8 0.00 0.00 0.00 54 1011.1
20260507235639 12 294 1.6 6.4 0.00 0.00 0.00 52 1011.0
20260507235139 13 294 1.6 6.4 0.00 0.00 0.00 53 1011.0
20260507234615 13 288 1.6 4.8 0.00 0.00 0.00 50 1011.0
20260507234043 13 298 3.2 14.5 0.00 0.00 0.00 51 1011.0
20260507233516 13 315 3.2 14.5 0.00 0.00 0.00 51 1011.0
20260507233014 13 309 3.2 11.3 0.00 0.00 0.00 54 1011.0
20260507232513 13 323 3.2 11.3 0.00 0.00 0.00 54 1011.1
20260507231941 13 281 4.8 12.9 0.00 0.00 0.00 53 1011.1
20260507231436 13 277 4.8 12.9 0.00 0.00 0.00 50 1011.1
20260507230937 13 307 3.2 12.9 0.00 0.00 0.00 49 1011.2
20260507230408 13 335 3.2 12.9 0.00 0.00 0.00 52 1011.1
20260507225905 13 304 3.2 9.7 0.00 0.00 0.00 51 1011.2
20260507225343 13 292 4.8 9.7 0.00 0.00 0.00 52 1011.2
20260507224841 13 324 6.4 17.7 0.00 0.00 0.00 49 1011.3
20260507224314 13 304 6.4 17.7 0.00 0.00 0.00 49 1011.3
20260507223814 14 285 6.4 17.7 0.00 0.00 0.00 47 1011.3
20260507223254 14 331 4.8 17.7 0.00 0.00 0.00 51 1011.4
20260507222752 14 311 4.8 11.3 0.00 0.00 0.00 51 1011.4
20260507222251 14 306 4.8 12.9 0.00 0.00 0.00 50 1011.3
20260507221753 14 292 6.4 24.1 0.00 0.00 0.00 48 1011.5
20260507221227 14 319 8.0 24.1 0.00 0.00 0.00 49 1011.4
20260507220708 14 266 8.0 19.3 0.00 0.00 0.00 48 1011.3
20260507220207 14 298 8.0 19.3 0.00 0.00 0.00 46 1011.2
20260507215642 14 335 8.0 19.3 0.00 0.00 0.00 47 1011.1
20260507215137 14 261 8.0 19.3 0.00 0.00 0.00 49 1011.2
20260507214635 14 284 8.0 19.3 0.00 0.00 0.00 49 1011.2
20260507214134 14 273 8.0 19.3 0.00 0.00 0.00 49 1011.3
20260507213633 14 288 8.0 22.5 0.00 0.00 0.00 48 1011.2
20260507213131 14 311 8.0 22.5 0.00 0.00 0.00 47 1011.2
20260507212634 14 309 6.4 19.3 0.00 0.00 0.00 51 1011.2
20260507212117 14 282 8.0 17.7 0.00 0.00 0.00 50 1011.2
20260507211554 15 301 6.4 17.7 0.00 0.00 0.00 48 1011.2
20260507211033 15 311 8.0 19.3 0.00 0.00 0.00 49 1011.1
20260507210506 14 292 6.4 19.3 0.00 0.00 0.00 50 1011.2
20260507210001 15 319 6.4 16.1 0.00 0.00 0.00 49 1011.1
20260507205502 14 271 6.4 20.9 0.00 0.00 0.00 50 1011.2
20260507204937 14 261 8.0 20.9 0.00 0.00 0.00 48 1011.1
20260507204417 14 300 8.0 20.9 0.00 0.00 0.00 48 1011.2
20260507203852 15 49 6.4 17.7 0.00 0.00 0.00 48 1011.3
20260507203348 15 286 6.4 19.3 0.00 0.00 0.00 50 1011.2
20260507202848 14 265 8.0 19.3 0.00 0.00 0.00 49 1011.2
20260507202347 14 275 8.0 19.3 0.00 0.00 0.00 48 1011.2
20260507201849 14 273 9.7 19.3 0.00 0.00 0.00 49 1011.3
20260507201321 14 307 9.7 17.7 0.00 0.00 0.00 48 1011.3
20260507200754 14 311 9.7 22.5 0.00 0.00 0.00 47 1011.3
20260507200228 14 289 8.0 22.5 0.00 0.00 0.00 47 1011.3
20260507195723 14 285 6.4 20.9 0.00 0.00 0.00 48 1011.1
20260507195156 14 311 8.0 20.9 0.00 0.00 0.00 48 1011.2
20260507194655 14 321 8.0 20.9 0.00 0.00 0.00 49 1011.3
20260507194120 14 288 6.4 17.7 0.00 0.00 0.00 51 1011.3
20260507193619 14 0 6.4 22.5 0.00 0.00 0.00 51 1011.4
20260507193122 14 254 8.0 16.1 0.00 0.00 0.00 53 1011.4
20260507192607 13 279 8.0 25.7 0.00 0.00 0.00 52 1011.5
20260507192103 13 315 9.7 19.3 0.00 0.00 0.00 54 1011.4
20260507191602 13 271 8.0 19.3 0.00 0.00 0.00 55 1011.4
20260507191033 13 267 4.8 16.1 0.00 0.00 0.00 55 1011.4
20260507190512 12 281 3.2 9.7 0.00 0.00 0.00 59 1011.6
20260507185941 12 323 3.2 8.0 0.00 0.00 0.00 60 1011.5